Location: St. Louis
(38.6270°N, 90.1994°W)
Time: 07:39:23
(UTC-06:00)

Transit 4A - Pass Details

Date: 08 December 2021
Orbit: 864 x 981 km, 66.8° (Epoch: 19 January)

Event Time Altitude Azimuth Distance (km) Brightness Sun altitude
Rises 04:44:23 0° 317° (NW) 3,643 - -27.0°
Reaches altitude 10° 04:47:26 10° 304° (NW) 2,707 - -26.4°
Maximum altitude 04:52:14 23° 254° (WSW) 1,938 - -25.4°
Exits shadow 04:56:11 13° 211° (SSW) 2,494 9.9 -24.7°
Drops below altitude 10° 04:57:03 10° 205° (SSW) 2,722 10.2 -24.5°
Sets 05:00:09 0° 191° (SSW) 3,666 11.0 -23.9°
